Regional Weather Roundup
Issued by NWS

Home | Current Version | Previous Version | Text Only | Print | Product List | Glossary Off
Versions: 1 2 3 4 5 6 7 8 9 10 11 12 13 14 15 16 17 18 19 20 21 22 23 24 25 26 27 28

000
ASUS45 KBOI 280310
RWRID

IDAHO REGIONAL WEATHER ROUNDUP
NATIONAL WEATHER SERVICE BOISE ID
900 PM MDT MON MAR 27 2017

NOTE: "FAIR" INDICATES FEW OR NO CLOUDS BELOW 12000 FEET
WITH NO SIGNIFICANT WEATHER AND/OR OBSTRUCTIONS TO VISIBILITY

IDZ012-014-280400-
SOUTHWEST IDAHO


CITY           SKY/WX    TMP DP  RH WIND       PRES   REMARKS
BOISE          CLEAR     47  31  53 NW10      30.12R
CALDWELL       PTCLDY    45  33  63 W9        30.14R
MOUNTAIN HOME  CLEAR     43  32  64 W10       30.11R
$$

IDZ016-017-280400-
SOUTHCENTRAL IDAHO


CITY           SKY/WX    TMP DP  RH WIND       PRES   REMARKS
BURLEY         LGT RAIN  42  27  55 W20G28    30.02R
JEROME         CLEAR     42  30  62 SW21      30.05R
TWIN FALLS     CLEAR     40  27  59 SW15      30.08R WCI  32
$$

IDZ019>023-280400-
SOUTHEAST IDAHO


CITY           SKY/WX    TMP DP  RH WIND       PRES   REMARKS
IDAHO FALLS    RAIN      40  37  89 VRB5      30.00R FOG
POCATELLO      CLOUDY    43  33  68 SW20      30.00R
REXBURG        RAIN      38  35  89 NE7       30.01R WCI  33
$$

IDZ006-010-011-018-031-032-280400-
CENTRAL IDAHO MOUNTAINS


CITY           SKY/WX    TMP DP  RH WIND       PRES   REMARKS
MCCALL         PTCLDY    34  26  72 N3        30.09R
HAILEY         PTCLDY    39  32  75 CALM      30.02R
STANLEY          N/A     34  25  69 N6        30.08R WCI  29
SALMON         MOCLDY    43  25  49 NW6       30.06R
CHALLIS        MOCLDY    40  26  57 NW5       30.05R
$$

IDZ002-004-006-007-026-280400-
NORTHERN IDAHO


CITY           SKY/WX    TMP DP  RH WIND       PRES   REMARKS
LEWISTON       CLEAR     49  31  49 SW6       30.14R
LOWELL           N/A     41  39  93 CALM      30.21R
COEUR D`ALENE  LGT RAIN  42  38  85 CALM      30.12R
MULLAN PASS    SNOW      29  28  96 CALM      30.06R VSB 1/2
$$




USA.gov is the U.S. government's official web portal to all federal, state and local government web resources and services.